• In Slovakia
  • List of Countries
  • For 7 days
  • Water Temperature
  • Satellite Maps
  • Weather Map
  • Weather Widgets
  • user-avatar
    Login

    Hourly Weather Mazari Sharif

    Today, 14 August, Tuesday

    Time Temperature Precipitation Wind Pressure Humidity
    00:00 +24°C° 0 mm 2 mps 653 mmHg 23%
    01:00 +23°C° 0 mm 2 mps 652 mmHg 23%
    02:00 +23°C° 0 mm 2 mps 652 mmHg 24%
    03:00 +21°C° 0 mm 2 mps 652 mmHg 25%
    04:00 +21°C° 0 mm 2 mps 652 mmHg 25%
    05:00 +23°C° 0 mm 1 mps 653 mmHg 23%
    06:00 +25°C° 0 mm 1 mps 654 mmHg 21%
    07:00 +26°C° 0 mm 1 mps 655 mmHg 19%
    08:00 +28°C° 0 mm 1 mps 655 mmHg 18%
    09:00 +29°C° 0 mm 2 mps 655 mmHg 17%
    10:00 +30°C° 0 mm 2 mps 655 mmHg 16%
    11:00 +31°C° 0 mm 2 mps 655 mmHg 15%
    12:00 +33°C° 0 mm 3 mps 655 mmHg 15%
    13:00 +34°C° 0 mm 3 mps 655 mmHg 14%
    14:00 +34°C° 0 mm 3 mps 655 mmHg 14%
    15:00 +34°C° 0 mm 3 mps 655 mmHg 14%
    16:00 +34°C° 0 mm 4 mps 654 mmHg 14%
    17:00 +33°C° 0 mm 3 mps 654 mmHg 16%
    18:00 +30°C° 0 mm 2 mps 654 mmHg 18%
    19:00 +29°C° 0 mm 1 mps 654 mmHg 19%
    20:00 +28°C° 0 mm 2 mps 654 mmHg 20%
    21:00 +28°C° 0 mm 2 mps 654 mmHg 21%
    22:00 +27°C° 0 mm 2 mps 654 mmHg 22%
    23:00 +26°C° 0 mm 2 mps 654 mmHg 23%

    Tomorrow, 15 August, Wednesday

    Time Temperature Precipitation Wind Pressure Humidity
    00:00 +26°C° 0 mm 2 mps 653 mmHg 23%
    01:00 +25°C° 0 mm 2 mps 653 mmHg 24%
    02:00 +25°C° 0 mm 2 mps 653 mmHg 24%
    03:00 +24°C° 0 mm 2 mps 653 mmHg 25%
    04:00 +24°C° 0 mm 2 mps 653 mmHg 25%
    05:00 +25°C° 0 mm 2 mps 653 mmHg 23%
    06:00 +26°C° 0 mm 2 mps 654 mmHg 20%
    07:00 +27°C° 0 mm 1 mps 655 mmHg 18%
    08:00 +29°C° 0 mm 2 mps 655 mmHg 16%
    09:00 +30°C° 0 mm 2 mps 655 mmHg 15%
    10:00 +31°C° 0 mm 2 mps 655 mmHg 13%
    11:00 +33°C° 0 mm 3 mps 655 mmHg 12%
    12:00 +34°C° 0 mm 3 mps 655 mmHg 12%
    13:00 +35°C° 0 mm 4 mps 655 mmHg 11%
    14:00 +35°C° 0 mm 3 mps 655 mmHg 11%
    15:00 +35°C° 0 mm 3 mps 655 mmHg 11%
    16:00 +35°C° 0 mm 3 mps 654 mmHg 11%
    17:00 +34°C° 0 mm 3 mps 654 mmHg 13%
    18:00 +31°C° 0 mm 2 mps 654 mmHg 14%
    19:00 +30°C° 0 mm 1 mps 654 mmHg 15%
    20:00 +29°C° 0 mm 2 mps 654 mmHg 16%
    21:00 +28°C° 0 mm 2 mps 654 mmHg 16%
    22:00 +28°C° 0 mm 3 mps 654 mmHg 17%
    23:00 +27°C° 0 mm 3 mps 654 mmHg 17%

    Day after tomorrow, 16 August, Thursday

    Time Temperature Precipitation Wind Pressure Humidity
    00:00 +27°C° 0 mm 3 mps 653 mmHg 18%
    01:00 +26°C° 0 mm 3 mps 653 mmHg 18%
    02:00 +26°C° 0 mm 3 mps 653 mmHg 19%
    03:00 +25°C° 0 mm 3 mps 653 mmHg 19%
    04:00 +25°C° 0 mm 2 mps 653 mmHg 19%
    05:00 +26°C° 0 mm 2 mps 654 mmHg 18%
    06:00 +27°C° 0 mm 2 mps 654 mmHg 16%
    07:00 +29°C° 0 mm 2 mps 655 mmHg 15%
    08:00 +30°C° 0 mm 3 mps 655 mmHg 14%
    09:00 +31°C° 0 mm 3 mps 656 mmHg 13%
    10:00 +33°C° 0 mm 4 mps 656 mmHg 12%
    11:00 +34°C° 0 mm 4 mps 656 mmHg 12%
    12:00 +35°C° 0 mm 5 mps 656 mmHg 11%
    13:00 +36°C° 0 mm 5 mps 655 mmHg 11%
    14:00 +36°C° 0 mm 5 mps 655 mmHg 11%
    15:00 +36°C° 0 mm 5 mps 655 mmHg 11%
    16:00 +36°C° 0 mm 5 mps 655 mmHg 11%
    17:00 +34°C° 0 mm 4 mps 655 mmHg 12%
    18:00 +33°C° 0 mm 4 mps 655 mmHg 13%
    19:00 +30°C° 0 mm 3 mps 655 mmHg 14%
    20:00 +30°C° 0 mm 4 mps 654 mmHg 15%
    21:00 +29°C° 0 mm 4 mps 654 mmHg 16%
    22:00 +28°C° 0 mm 4 mps 654 mmHg 18%
    23:00 +28°C° 0 mm 4 mps 654 mmHg 19%

    17 August, Friday

    Time Temperature Precipitation Wind Pressure Humidity
    00:00 +27°C° 0 mm 4 mps 654 mmHg 20%
    01:00 +26°C° 0 mm 4 mps 653 mmHg 21%
    02:00 +26°C° 0 mm 4 mps 653 mmHg 21%
    03:00 +25°C° 0 mm 4 mps 653 mmHg 22%
    04:00 +25°C° 0 mm 4 mps 653 mmHg 23%
    05:00 +26°C° 0 mm 4 mps 653 mmHg 22%
    06:00 +26°C° 0 mm 4 mps 654 mmHg 21%
    07:00 +27°C° 0 mm 4 mps 654 mmHg 19%
    08:00 +29°C° 0 mm 4 mps 655 mmHg 18%
    09:00 +30°C° 0 mm 5 mps 655 mmHg 16%
    10:00 +32°C° 0 mm 5 mps 655 mmHg 15%
    11:00 +33°C° 0 mm 6 mps 655 mmHg 14%
    12:00 +33°C° 0 mm 6 mps 654 mmHg 13%
    13:00 +34°C° 0 mm 6 mps 654 mmHg 13%
    14:00 +34°C° 0 mm 6 mps 654 mmHg 13%
    15:00 +34°C° 0 mm 6 mps 653 mmHg 12%
    16:00 +34°C° 0 mm 6 mps 653 mmHg 12%
    17:00 +32°C° 0 mm 5 mps 653 mmHg 13%
    18:00 +30°C° 0 mm 4 mps 653 mmHg 14%
    19:00 +29°C° 0 mm 3 mps 653 mmHg 15%
    20:00 +28°C° 0 mm 3 mps 652 mmHg 16%
    21:00 +27°C° 0 mm 3 mps 652 mmHg 17%
    22:00 +26°C° 0 mm 3 mps 652 mmHg 17%
    23:00 +26°C° 0 mm 3 mps 652 mmHg 18%

    18 August, Saturday

    Time Temperature Precipitation Wind Pressure Humidity
    00:00 +25°C° 0 mm 3 mps 651 mmHg 19%
    01:00 +25°C° 0 mm 3 mps 651 mmHg 19%
    02:00 +24°C° 0 mm 3 mps 651 mmHg 20%
    03:00 +24°C° 0 mm 3 mps 651 mmHg 20%
    04:00 +22°C° 0 mm 3 mps 651 mmHg 21%
    05:00 +24°C° 0 mm 3 mps 651 mmHg 19%
    06:00 +25°C° 0 mm 3 mps 652 mmHg 18%
    07:00 +26°C° 0 mm 2 mps 652 mmHg 17%
    08:00 +28°C° 0 mm 3 mps 653 mmHg 16%
    09:00 +29°C° 0 mm 3 mps 653 mmHg 15%
    10:00 +30°C° 0 mm 3 mps 653 mmHg 14%
    11:00 +31°C° 0 mm 3 mps 653 mmHg 13%
    12:00 +32°C° 0 mm 4 mps 653 mmHg 12%
    13:00 +33°C° 0 mm 4 mps 652 mmHg 12%
    14:00 +33°C° 0 mm 4 mps 652 mmHg 11%
    15:00 +33°C° 0 mm 4 mps 652 mmHg 11%
    16:00 +33°C° 0 mm 4 mps 652 mmHg 11%
    17:00 +31°C° 0 mm 3 mps 652 mmHg 12%
    18:00 +29°C° 0 mm 2 mps 652 mmHg 13%
    19:00 +28°C° 0 mm 1 mps 652 mmHg 15%
    20:00 +27°C° 0 mm 1 mps 652 mmHg 15%
    21:00 +26°C° 0 mm 1 mps 652 mmHg 16%
    22:00 +25°C° 0 mm 1 mps 652 mmHg 17%
    23:00 +25°C° 0 mm 1 mps 651 mmHg 18%

    19 August, Sunday

    Time Temperature Precipitation Wind Pressure Humidity
    00:00 +24°C° 0 mm 1 mps 651 mmHg 19%
    01:00 +24°C° 0 mm 1 mps 651 mmHg 19%
    02:00 +23°C° 0 mm 1 mps 651 mmHg 20%
    03:00 +22°C° 0 mm 1 mps 651 mmHg 21%
    04:00 +22°C° 0 mm 1 mps 651 mmHg 21%
    05:00 +24°C° 0 mm 1 mps 652 mmHg 20%
    06:00 +25°C° 0 mm 1 mps 652 mmHg 18%
    07:00 +27°C° 0 mm 1 mps 653 mmHg 16%
    08:00 +28°C° 0 mm 1 mps 653 mmHg 14%
    09:00 +29°C° 0 mm 2 mps 654 mmHg 13%
    10:00 +30°C° 0 mm 2 mps 654 mmHg 11%
    11:00 +31°C° 0 mm 2 mps 654 mmHg 11%
    12:00 +33°C° 0 mm 3 mps 653 mmHg 10%
    13:00 +34°C° 0 mm 3 mps 653 mmHg 9%
    14:00 +34°C° 0 mm 3 mps 653 mmHg 9%
    15:00 +34°C° 0 mm 3 mps 653 mmHg 9%
    16:00 +34°C° 0 mm 3 mps 653 mmHg 8%
    17:00 +31°C° 0 mm 3 mps 653 mmHg 10%
    18:00 +30°C° 0 mm 2 mps 653 mmHg 11%
    19:00 +28°C° 0 mm 1 mps 653 mmHg 12%
    20:00 +27°C° 0 mm 1 mps 653 mmHg 13%
    21:00 +26°C° 0 mm 1 mps 653 mmHg 14%
    22:00 +25°C° 0 mm 1 mps 652 mmHg 14%
    23:00 +25°C° 0 mm 1 mps 652 mmHg 15%
    Show more